| time (UTC) | temp F | wind direction | speed MPH | gust MPH | rain 1hr in | rain 24hr in | rain mn in | humidity % | barometer mb |
| 20260906151516 | 88 | 2 | 1.0 | 5.0 | 0.00 | 0.00 | 0.00 | 57 | 1018.0 |
| 20260906150516 | 88 | 44 | 1.0 | 3.0 | 0.00 | 0.00 | 0.00 | 59 | 1017.9 |
| 20260906145516 | 86 | 339 | 1.0 | 5.0 | 0.00 | 0.00 | 0.00 | 62 | 1017.8 |
| 20260906144516 | 84 | 43 | 1.0 | 4.0 | 0.00 | 0.00 | 0.00 | 64 | 1017.8 |
| 20260906143516 | 84 | 353 | 2.0 | 4.0 | 0.00 | 0.00 | 0.00 | 65 | 1017.9 |
| 20260906142516 | 83 | 354 | 1.0 | 4.0 | 0.00 | 0.00 | 0.00 | 68 | 1017.6 |
| 20260906141516 | 81 | 347 | 2.0 | 4.0 | 0.00 | 0.00 | 0.00 | 70 | 1017.6 |
| 20260906140516 | 80 | 353 | 1.0 | 3.0 | 0.00 | 0.00 | 0.00 | 73 | 1017.4 |
| 20260906135516 | 78 | 343 | 1.0 | 3.0 | 0.00 | 0.00 | 0.00 | 77 | 1017.5 |
| 20260906134516 | 76 | 349 | 0.0 | 3.0 | 0.00 | 0.00 | 0.00 | 80 | 1017.5 |
| 20260906133516 | 75 | 37 | 0.0 | 4.0 | 0.00 | 0.00 | 0.00 | 82 | 1017.6 |
| 20260906132516 | 74 | 348 | 1.0 | 4.0 | 0.00 | 0.00 | 0.00 | 83 | 1017.6 |
| 20260906131516 | 74 | 341 | 0.0 | 4.0 | 0.00 | 0.00 | 0.00 | 84 | 1017.6 |
| 20260906130536 | 73 | 14 | 0.0 | 2.0 | 0.00 | 0.00 | 0.00 | 84 | 1017.6 |
| 20260906125516 | 73 | 26 | 0.0 | 2.0 | 0.00 | 0.00 | 0.00 | 85 | 1017.7 |
| 20260906124516 | 73 | 21 | 1.0 | 3.0 | 0.00 | 0.00 | 0.00 | 85 | 1017.6 |
| 20260906123516 | 73 | 351 | 1.0 | 3.0 | 0.00 | 0.00 | 0.00 | 85 | 1017.5 |
| 20260906122516 | 73 | 7 | 0.0 | 2.0 | 0.00 | 0.00 | 0.00 | 85 | 1017.3 |
| 20260906121516 | 73 | 49 | 0.0 | 1.0 | 0.00 | 0.00 | 0.00 | 85 | 1017.2 |
| 20260906120516 | 73 | 46 | 0.0 | 1.0 | 0.00 | 0.00 | 0.00 | 85 | 1017.0 |
| 20260906115536 | 74 | 40 | 1.0 | 3.0 | 0.00 | 0.00 | 0.00 | 85 | 1016.9 |
| 20260906114516 | 74 | 276 | 0.0 | 1.0 | 0.00 | 0.00 | 0.00 | 84 | 1016.7 |
| 20260906113516 | 74 | 0.0 | 0.0 | 0.00 | 0.00 | 0.00 | 84 | 1016.7 | |
| 20260906112516 | 74 | 0.0 | 0.0 | 0.00 | 0.00 | 0.00 | 84 | 1016.6 | |
| 20260906111516 | 75 | 0.0 | 0.0 | 0.00 | 0.00 | 0.00 | 83 | 1016.5 | |
| 20260906110516 | 75 | 0.0 | 0.0 | 0.00 | 0.00 | 0.00 | 84 | 1016.7 | |
| 20260906105516 | 75 | 0.0 | 2.0 | 0.00 | 0.00 | 0.00 | 84 | 1016.6 | |
| 20260906104516 | 75 | 358 | 0.0 | 2.0 | 0.00 | 0.00 | 0.00 | 84 | 1016.5 |
| 20260906103536 | 75 | 9 | 0.0 | 1.0 | 0.00 | 0.00 | 0.00 | 83 | 1016.4 |
| 20260906102556 | 76 | 354 | 1.0 | 3.0 | 0.00 | 0.00 | 0.00 | 83 | 1016.3 |
| 20260906101516 | 76 | 44 | 0.0 | 4.0 | 0.00 | 0.00 | 0.00 | 83 | 1016.2 |
| 20260906100516 | 76 | 8 | 0.0 | 2.0 | 0.00 | 0.00 | 0.00 | 83 | 1016.1 |
| 20260906095516 | 76 | 16 | 0.0 | 1.0 | 0.00 | 0.00 | 0.00 | 83 | 1016.1 |
| 20260906094515 | 77 | 10 | 0.0 | 3.0 | 0.00 | 0.00 | 0.00 | 83 | 1016.0 |
| 20260906093515 | 77 | 344 | 0.0 | 2.0 | 0.00 | 0.00 | 0.00 | 83 | 1016.0 |
| 20260906092515 | 77 | 5 | 1.0 | 4.0 | 0.00 | 0.00 | 0.00 | 83 | 1016.1 |
| 20260906091536 | 77 | 357 | 1.0 | 5.0 | 0.00 | 0.00 | 0.00 | 83 | 1016.0 |
| 20260906090516 | 77 | 355 | 1.0 | 2.0 | 0.00 | 0.00 | 0.00 | 83 | 1015.9 |
| 20260906085515 | 78 | 21 | 1.0 | 3.0 | 0.00 | 0.00 | 0.00 | 83 | 1015.8 |
| 20260906084515 | 78 | 343 | 1.0 | 4.0 | 0.00 | 0.00 | 0.00 | 83 | 1015.7 |
| 20260906083515 | 78 | 353 | 1.0 | 3.0 | 0.00 | 0.00 | 0.00 | 83 | 1015.4 |
| 20260906082515 | 78 | 3 | 0.0 | 3.0 | 0.00 | 0.00 | 0.00 | 83 | 1015.4 |
| 20260906081516 | 78 | 326 | 0.0 | 3.0 | 0.00 | 0.00 | 0.00 | 83 | 1015.4 |
| 20260906080534 | 79 | 22 | 0.0 | 3.0 | 0.00 | 0.00 | 0.00 | 82 | 1015.4 |
| 20260906075515 | 79 | 2 | 1.0 | 2.0 | 0.00 | 0.00 | 0.00 | 81 | 1015.4 |
| 20260906074515 | 79 | 3 | 0.0 | 1.0 | 0.00 | 0.00 | 0.00 | 81 | 1015.5 |
| 20260906073515 | 79 | 348 | 0.0 | 1.0 | 0.00 | 0.00 | 0.00 | 81 | 1015.6 |
| 20260906072515 | 79 | 338 | 0.0 | 1.0 | 0.00 | 0.00 | 0.00 | 80 | 1015.7 |
| 20260906071515 | 79 | 307 | 0.0 | 1.0 | 0.00 | 0.00 | 0.00 | 79 | 1015.5 |
| 20260906070515 | 79 | 0.0 | 1.0 | 0.00 | 0.00 | 0.00 | 78 | 1015.4 | |
| 20260906065515 | 79 | 0.0 | 0.0 | 0.00 | 0.00 | 0.00 | 78 | 1015.4 | |
| 20260906064514 | 80 | 315 | 0.0 | 1.0 | 0.00 | 0.00 | 0.00 | 78 | 1015.4 |
| 20260906063515 | 80 | 0.0 | 0.0 | 0.00 | 0.00 | 0.00 | 77 | 1015.7 | |
| 20260906062516 | 80 | 0.0 | 1.0 | 0.00 | 0.00 | 0.00 | 76 | 1015.7 | |
| 20260906061516 | 80 | 0.0 | 0.0 | 0.00 | 0.00 | 0.00 | 76 | 1015.5 | |
| 20260906060515 | 80 | 0.0 | 0.0 | 0.00 | 0.00 | 0.00 | 75 | 1015.5 | |
| 20260906055515 | 80 | 0.0 | 1.0 | 0.00 | 0.00 | 0.00 | 75 | 1015.5 | |
| 20260906054515 | 80 | 0.0 | 0.0 | 0.00 | 0.00 | 0.00 | 75 | 1015.5 | |
| 20260906053515 | 80 | 0.0 | 0.0 | 0.00 | 0.00 | 0.00 | 74 | 1015.5 | |
| 20260906052514 | 81 | 0.0 | 0.0 | 0.00 | 0.00 | 0.00 | 73 | 1015.6 | |
| 20260906051515 | 81 | 0.0 | 0.0 | 0.00 | 0.00 | 0.00 | 72 | 1015.4 | |
| 20260906050515 | 81 | 0.0 | 1.0 | 0.00 | 0.00 | 0.00 | 72 | 1015.4 | |
| 20260906045515 | 81 | 0.0 | 0.0 | 0.00 | 0.00 | 0.00 | 71 | 1015.4 | |
| 20260906044515 | 81 | 0.0 | 0.0 | 0.00 | 0.00 | 0.00 | 71 | 1015.3 | |
| 20260906043515 | 81 | 0.0 | 0.0 | 0.00 | 0.00 | 0.00 | 71 | 1015.2 | |
| 20260906042515 | 81 | 322 | 0.0 | 1.0 | 0.00 | 0.00 | 0.00 | 71 | 1015.2 |
| 20260906041515 | 81 | 0.0 | 0.0 | 0.00 | 0.00 | 0.00 | 71 | 1015.2 | |
| 20260906040515 | 81 | 0.0 | 0.0 | 0.00 | 0.00 | 0.00 | 70 | 1015.0 | |
| 20260906035515 | 81 | 337 | 0.0 | 1.0 | 0.00 | 0.00 | 0.00 | 70 | 1015.0 |
| 20260906034535 | 82 | 0.0 | 0.0 | 0.00 | 0.00 | 0.00 | 70 | 1015.0 | |
| 20260906033535 | 82 | 0.0 | 0.0 | 0.00 | 0.00 | 0.00 | 69 | 1015.0 | |
| 20260906032515 | 82 | 0.0 | 0.0 | 0.00 | 0.00 | 0.00 | 69 | 1015.0 | |
| 20260906031515 | 82 | 0.0 | 0.0 | 0.00 | 0.00 | 0.00 | 69 | 1014.9 | |
| 20260906030515 | 83 | 0.0 | 0.0 | 0.00 | 0.00 | 0.00 | 68 | 1014.8 | |
| 20260906025515 | 83 | 0.0 | 1.0 | 0.00 | 0.00 | 0.00 | 67 | 1014.7 | |
| 20260906024515 | 84 | 0.0 | 1.0 | 0.00 | 0.00 | 0.00 | 67 | 1014.7 | |
| 20260906023535 | 84 | 337 | 0.0 | 1.0 | 0.00 | 0.00 | 0.00 | 66 | 1014.5 |
| 20260906022515 | 85 | 337 | 0.0 | 2.0 | 0.00 | 0.00 | 0.00 | 65 | 1014.3 |
| 20260906021540 | 85 | 337 | 0.0 | 1.0 | 0.00 | 0.00 | 0.00 | 65 | 1014.2 |
| 20260906020515 | 85 | 0.0 | 0.0 | 0.00 | 0.00 | 0.00 | 65 | 1014.1 | |
| 20260906015515 | 86 | 337 | 0.0 | 1.0 | 0.00 | 0.00 | 0.00 | 64 | 1014.0 |
| 20260906014515 | 86 | 0.0 | 0.0 | 0.00 | 0.00 | 0.00 | 63 | 1013.9 | |
| 20260906013535 | 87 | 337 | 0.0 | 1.0 | 0.00 | 0.00 | 0.00 | 62 | 1013.8 |
| 20260906012515 | 87 | 337 | 0.0 | 1.0 | 0.00 | 0.00 | 0.00 | 61 | 1013.6 |
| 20260906011515 | 88 | 0.0 | 0.0 | 0.00 | 0.00 | 0.00 | 60 | 1013.6 | |
| 20260906010515 | 89 | 337 | 0.0 | 1.0 | 0.00 | 0.00 | 0.00 | 58 | 1013.5 |
| 20260906005515 | 90 | 337 | 0.0 | 2.0 | 0.00 | 0.00 | 0.00 | 57 | 1013.5 |
| 20260906004535 | 91 | 337 | 0.0 | 1.0 | 0.00 | 0.00 | 0.00 | 56 | 1013.4 |
| 20260906003535 | 92 | 337 | 0.0 | 1.0 | 0.00 | 0.00 | 0.00 | 54 | 1013.3 |
| 20260906002515 | 93 | 337 | 0.0 | 1.0 | 0.00 | 0.00 | 0.00 | 53 | 1013.4 |
| 20260906001520 | 94 | 0.0 | 1.0 | 0.00 | 0.00 | 0.00 | 51 | 1013.5 | |
| 20260906000515 | 95 | 0.0 | 1.0 | 0.00 | 0.00 | 0.00 | 50 | 1013.4 | |
| 20260905235515 | 95 | 340 | 1.0 | 3.0 | 0.00 | 0.00 | 0.00 | 48 | 1013.5 |
| 20260905234515 | 96 | 348 | 1.0 | 4.0 | 0.00 | 0.00 | 0.00 | 46 | 1013.5 |
| 20260905233515 | 97 | 346 | 0.0 | 2.0 | 0.00 | 0.00 | 0.00 | 46 | 1013.5 |
| 20260905232515 | 97 | 347 | 1.0 | 2.0 | 0.00 | 0.00 | 0.00 | 44 | 1013.5 |
| 20260905231515 | 98 | 345 | 1.0 | 4.0 | 0.00 | 0.00 | 0.00 | 43 | 1013.6 |
| 20260905230515 | 99 | 348 | 2.0 | 5.0 | 0.00 | 0.00 | 0.00 | 42 | 1013.6 |
| 20260905225535 | 99 | 350 | 2.0 | 5.0 | 0.00 | 0.00 | 0.00 | 43 | 1013.5 |
| 20260905224515 | 99 | 342 | 0.0 | 2.0 | 0.00 | 0.00 | 0.00 | 43 | 1013.4 |
| 20260905223515 | 101 | 264 | 0.0 | 2.0 | 0.00 | 0.00 | 0.00 | 42 | 1013.2 |
| 20260905222515 | 102 | 338 | 0.0 | 1.0 | 0.00 | 0.00 | 0.00 | 40 | 1013.2 |
| 20260905221515 | 103 | 348 | 0.0 | 2.0 | 0.00 | 0.00 | 0.00 | 38 | 1013.1 |
| 20260905220515 | 104 | 25 | 0.0 | 2.0 | 0.00 | 0.00 | 0.00 | 38 | 1013.2 |
| 20260905215514 | 104 | 344 | 0.0 | 3.0 | 0.00 | 0.00 | 0.00 | 38 | 1013.4 |
| 20260905214515 | 103 | 354 | 1.0 | 3.0 | 0.00 | 0.00 | 0.00 | 39 | 1013.4 |
| 20260905213514 | 103 | 31 | 1.0 | 2.0 | 0.00 | 0.00 | 0.00 | 39 | 1013.4 |
| 20260905212515 | 103 | 1 | 0.0 | 3.0 | 0.00 | 0.00 | 0.00 | 39 | 1013.3 |
| 20260905211515 | 104 | 337 | 1.0 | 6.0 | 0.00 | 0.00 | 0.00 | 38 | 1013.3 |
| 20260905210514 | 104 | 55 | 1.0 | 2.0 | 0.00 | 0.00 | 0.00 | 38 | 1013.5 |
| 20260905205515 | 104 | 62 | 1.0 | 3.0 | 0.00 | 0.00 | 0.00 | 39 | 1013.7 |
| 20260905204514 | 103 | 44 | 1.0 | 4.0 | 0.00 | 0.00 | 0.00 | 37 | 1013.7 |
| 20260905203514 | 102 | 151 | 2.0 | 4.0 | 0.00 | 0.00 | 0.00 | 38 | 1013.6 |
| 20260905202514 | 101 | 199 | 1.0 | 2.0 | 0.00 | 0.00 | 0.00 | 41 | 1013.7 |
| 20260905201515 | 100 | 165 | 0.0 | 2.0 | 0.00 | 0.00 | 0.00 | 41 | 1014.0 |
| 20260905200515 | 100 | 144 | 0.0 | 3.0 | 0.00 | 0.00 | 0.00 | 41 | 1014.1 |
| 20260905195600 | 100 | 88 | 0.0 | 2.0 | 0.00 | 0.00 | 0.00 | 40 | 1014.2 |
| 20260905194514 | 101 | 19 | 1.0 | 5.0 | 0.00 | 0.00 | 0.00 | 39 | 1014.2 |
| 20260905193514 | 102 | 62 | 0.0 | 2.0 | 0.00 | 0.00 | 0.00 | 36 | 1014.3 |
| 20260905192557 | 103 | 155 | 0.0 | 4.0 | 0.00 | 0.00 | 0.00 | 36 | 1014.4 |
| 20260905191517 | 102 | 123 | 1.0 | 4.0 | 0.00 | 0.00 | 0.00 | 38 | 1014.4 |
| 20260905190557 | 103 | 230 | 0.0 | 3.0 | 0.00 | 0.00 | 0.00 | 36 | 1014.4 |
| 20260905185517 | 107 | 212 | 0.0 | 3.0 | 0.00 | 0.00 | 0.00 | 32 | 1014.5 |
| 20260905184517 | 110 | 146 | 2.0 | 7.0 | 0.00 | 0.00 | 0.00 | 30 | 1014.5 |
| 20260905183517 | 110 | 12 | 1.0 | 4.0 | 0.00 | 0.00 | 0.00 | 31 | 1014.6 |
| 20260905182517 | 109 | 9 | 1.0 | 3.0 | 0.00 | 0.00 | 0.00 | 31 | 1014.6 |
| 20260905181517 | 109 | 198 | 1.0 | 4.0 | 0.00 | 0.00 | 0.00 | 30 | 1014.8 |
| 20260905180517 | 109 | 57 | 1.0 | 4.0 | 0.00 | 0.00 | 0.00 | 30 | 1014.9 |
| 20260905175517 | 108 | 94 | 1.0 | 3.0 | 0.00 | 0.00 | 0.00 | 35 | 1014.9 |
| 20260905174517 | 109 | 19 | 0.0 | 2.0 | 0.00 | 0.00 | 0.00 | 32 | 1015.0 |
| 20260905173517 | 110 | 3 | 1.0 | 6.0 | 0.00 | 0.00 | 0.00 | 31 | 1015.1 |
| 20260905172517 | 110 | 139 | 1.0 | 3.0 | 0.00 | 0.00 | 0.00 | 31 | 1015.2 |
| 20260905171517 | 109 | 28 | 1.0 | 2.0 | 0.00 | 0.00 | 0.00 | 33 | 1015.3 |
| 20260905170517 | 107 | 45 | 1.0 | 3.0 | 0.00 | 0.00 | 0.00 | 34 | 1015.4 |
| 20260905165537 | 107 | 36 | 1.0 | 4.0 | 0.00 | 0.00 | 0.00 | 34 | 1015.6 |
| 20260905164537 | 106 | 148 | 0.0 | 4.0 | 0.00 | 0.00 | 0.00 | 37 | 1015.6 |
| 20260905163517 | 106 | 211 | 1.0 | 3.0 | 0.00 | 0.00 | 0.00 | 37 | 1015.7 |
| 20260905162517 | 104 | 70 | 0.0 | 4.0 | 0.00 | 0.00 | 0.00 | 40 | 1015.8 |
| 20260905161517 | 105 | 351 | 1.0 | 2.0 | 0.00 | 0.00 | 0.00 | 39 | 1015.9 |
| 20260905160537 | 103 | 134 | 1.0 | 2.0 | 0.00 | 0.00 | 0.00 | 40 | 1015.9 |
| 20260905155537 | 102 | 173 | 0.0 | 3.0 | 0.00 | 0.00 | 0.00 | 44 | 1015.9 |
| 20260905154517 | 101 | 85 | 1.0 | 3.0 | 0.00 | 0.00 | 0.00 | 43 | 1015.8 |
| 20260905153517 | 99 | 36 | 1.0 | 3.0 | 0.00 | 0.00 | 0.00 | 45 | 1015.9 |
| 20260905152537 | 98 | 144 | 0.0 | 4.0 | 0.00 | 0.00 | 0.00 | 49 | 1016.0 |